DAL214 KATL-KSEA

Flight info

Callsign DAL214
Flight time 4h 42m
Altitude 40000
Route PENCL2 JAACE HITMN LAJUG J45 STL IRK OVR ONL J151 BIL J136 MLP GLASR3
Aircraft A359/H-SDE2E3GHIJ3J4J5LM1ORWXY/LB1D1

Departure

Time 2026-05-08 01:09
Airport Hartsfield Jackson Atlanta International Airport (KATL)

Arrival

Time 2026-05-08 05:52
Airport Seattle–Tacoma International Airport (KSEA)
Time Latitude Longitude Altitude Speed Heading
2026-05-08 00:29 33.63985 -84.42072 1013 ft 0 kts 89°
2026-05-08 00:34 33.63985 -84.42065 1013 ft 0 kts 89°
2026-05-08 00:54 33.63984 -84.42080 1013 ft 4 kts 89°
2026-05-08 00:54 33.63984 -84.42110 1013 ft 3 kts 89°
2026-05-08 00:54 33.63988 -84.42137 1013 ft 4 kts 142°
2026-05-08 00:55 33.64011 -84.42146 1013 ft 4 kts 180°
2026-05-08 00:55 33.64027 -84.42146 1013 ft 1 kts 180°
2026-05-08 00:55 33.64029 -84.42146 1013 ft 0 kts 180°
2026-05-08 01:02 33.64027 -84.42146 1013 ft 2 kts 180°
2026-05-08 01:03 33.63989 -84.42146 1013 ft 9 kts 180°
2026-05-08 01:03 33.63910 -84.42146 1013 ft 13 kts 180°
2026-05-08 01:03 33.63870 -84.42189 1013 ft 8 kts 257°
2026-05-08 01:03 33.63890 -84.42237 1013 ft 6 kts 343°
2026-05-08 01:04 33.63936 -84.42244 1013 ft 7 kts 357°
2026-05-08 01:04 33.63998 -84.42243 1013 ft 11 kts
2026-05-08 01:04 33.64084 -84.42241 1013 ft 14 kts
2026-05-08 01:04 33.64191 -84.42239 1012 ft 17 kts
2026-05-08 01:05 33.64314 -84.42237 1013 ft 19 kts
2026-05-08 01:05 33.64449 -84.42233 1012 ft 20 kts
2026-05-08 01:05 33.64534 -84.42125 1012 ft 19 kts 67°
2026-05-08 01:05 33.64543 -84.41961 1012 ft 20 kts 90°
2026-05-08 01:06 33.64542 -84.41784 1012 ft 22 kts 90°
2026-05-08 01:06 33.64543 -84.41600 1013 ft 22 kts 90°
2026-05-08 01:06 33.64542 -84.41461 1013 ft 17 kts 90°
2026-05-08 01:06 33.64543 -84.41308 1013 ft 19 kts 90°
2026-05-08 01:07 33.64543 -84.41141 1013 ft 21 kts 90°
2026-05-08 01:07 33.64542 -84.40958 1012 ft 23 kts 90°
2026-05-08 01:07 33.64554 -84.40831 1012 ft 24 kts 74°
2026-05-08 01:07 33.64570 -84.40646 1012 ft 8 kts 88°
2026-05-08 01:08 33.64594 -84.40580 1011 ft 9 kts 34°
2026-05-08 01:08 33.64664 -84.40584 1010 ft 11 kts 326°
2026-05-08 01:08 33.64680 -84.40669 1010 ft 11 kts 269°
2026-05-08 01:08 33.64679 -84.40888 1013 ft 56 kts 270°
2026-05-08 01:09 33.64680 -84.41320 1015 ft 99 kts 270°
2026-05-08 01:09 33.64677 -84.42384 1012 ft 154 kts 269°
2026-05-08 01:09 33.64684 -84.43706 1644 ft 154 kts 274°
2026-05-08 01:09 33.64766 -84.45474 2343 ft 167 kts 283°
2026-05-08 01:10 33.64969 -84.46401 2714 ft 173 kts 291°
2026-05-08 01:10 33.65467 -84.47786 3116 ft 192 kts 295°
2026-05-08 01:10 33.66047 -84.49351 3399 ft 217 kts 296°
2026-05-08 01:10 33.66703 -84.51070 3734 ft 242 kts 295°
2026-05-08 01:11 33.67450 -84.52981 4098 ft 264 kts 295°
2026-05-08 01:11 33.68225 -84.54926 5173 ft 252 kts 295°
2026-05-08 01:11 33.69033 -84.56784 6147 ft 251 kts 302°
2026-05-08 01:11 33.70438 -84.58048 7040 ft 263 kts 334°
2026-05-08 01:12 33.72287 -84.58357 7933 ft 274 kts 352°
2026-05-08 01:12 33.74218 -84.58301 8756 ft 281 kts 354°
2026-05-08 01:12 33.76194 -84.58220 9502 ft 286 kts 353°
2026-05-08 01:12 33.78186 -84.58158 9919 ft 287 kts 352°
2026-05-08 01:13 33.80188 -84.58112 10023 ft 287 kts 352°
2026-05-08 01:13 33.82188 -84.58082 10018 ft 288 kts 351°
2026-05-08 01:13 33.84187 -84.58127 10025 ft 285 kts 346°
2026-05-08 01:13 33.86099 -84.58547 10079 ft 276 kts 336°
2026-05-08 01:14 33.87963 -84.59147 10283 ft 288 kts 335°
2026-05-08 01:14 33.89968 -84.59818 10609 ft 309 kts 336°
2026-05-08 01:14 33.92106 -84.60526 10972 ft 328 kts 336°
2026-05-08 01:14 33.94368 -84.61261 11469 ft 341 kts 336°
2026-05-08 01:15 33.96678 -84.62001 12154 ft 345 kts 336°
2026-05-08 01:15 33.99010 -84.62746 12902 ft 348 kts 336°
2026-05-08 01:15 34.01356 -84.63500 13631 ft 351 kts 335°
2026-05-08 01:15 34.03721 -84.64261 14291 ft 353 kts 335°
2026-05-08 01:16 34.06083 -84.65026 14871 ft 357 kts 335°
2026-05-08 01:16 34.08493 -84.65806 15453 ft 361 kts 335°
2026-05-08 01:16 34.10932 -84.66596 16064 ft 364 kts 335°
2026-05-08 01:16 34.13396 -84.67396 16603 ft 370 kts 335°
2026-05-08 01:17 34.15897 -84.68207 17199 ft 373 kts 335°
2026-05-08 01:17 34.18409 -84.69020 17826 ft 375 kts 335°
2026-05-08 01:17 34.20945 -84.69843 18436 ft 379 kts 334°
2026-05-08 01:17 34.23503 -84.70675 18962 ft 382 kts 334°
2026-05-08 01:18 34.26076 -84.71512 19482 ft 385 kts 334°
2026-05-08 01:18 34.28615 -84.72495 20029 ft 382 kts 329°
2026-05-08 01:18 34.31131 -84.73601 20578 ft 385 kts 329°
2026-05-08 01:18 34.33665 -84.74712 21127 ft 388 kts 329°
2026-05-08 01:19 34.36188 -84.75802 21662 ft 391 kts 329°
2026-05-08 01:19 34.38772 -84.76910 22142 ft 397 kts 329°
2026-05-08 01:19 34.41401 -84.78033 22617 ft 402 kts 329°
2026-05-08 01:19 34.44056 -84.79160 23172 ft 405 kts 329°
2026-05-08 01:20 34.46726 -84.80293 23696 ft 408 kts 329°
2026-05-08 01:20 34.49417 -84.81436 24161 ft 411 kts 329°
2026-05-08 01:20 34.52121 -84.82583 24656 ft 413 kts 329°
2026-05-08 01:20 34.54844 -84.83739 25158 ft 415 kts 329°
2026-05-08 01:21 34.57579 -84.84901 25644 ft 418 kts 328°
2026-05-08 01:21 34.60334 -84.86073 26162 ft 420 kts 328°
2026-05-08 01:21 34.63101 -84.87251 26707 ft 423 kts 328°
2026-05-08 01:21 34.65876 -84.88432 27293 ft 423 kts 328°
2026-05-08 01:22 34.68617 -84.89598 27867 ft 423 kts 327°
2026-05-08 01:22 34.71402 -84.90786 28357 ft 425 kts 327°
2026-05-08 01:22 34.74200 -84.91982 28859 ft 427 kts 327°
2026-05-08 01:22 34.77007 -84.93182 29348 ft 429 kts 327°
2026-05-08 01:23 34.79828 -84.94388 29804 ft 431 kts 327°
2026-05-08 01:23 34.82673 -84.95605 30239 ft 433 kts 326°
2026-05-08 01:23 34.85522 -84.96826 30533 ft 436 kts 327°
2026-05-08 01:23 34.88363 -84.98046 30777 ft 440 kts 327°
2026-05-08 01:24 34.91264 -84.99289 31153 ft 442 kts 326°
2026-05-08 01:24 34.94174 -85.00536 31487 ft 444 kts 326°
2026-05-08 01:24 34.97105 -85.01796 31734 ft 448 kts 326°
2026-05-08 01:24 35.00055 -85.03065 31983 ft 451 kts 326°
2026-05-08 01:25 35.03031 -85.04344 32246 ft 454 kts 326°
2026-05-08 01:25 35.06013 -85.05642 32592 ft 452 kts 324°
2026-05-08 01:25 35.08833 -85.07183 33006 ft 436 kts 317°
2026-05-08 01:25 35.11354 -85.09122 33379 ft 421 kts 310°
2026-05-08 01:26 35.13537 -85.11405 33703 ft 407 kts 303°
2026-05-08 01:26 35.15378 -85.13925 34117 ft 399 kts 298°
2026-05-08 01:26 35.17095 -85.16543 34735 ft 388 kts 297°
2026-05-08 01:26 35.18757 -85.19104 35272 ft 383 kts 297°
2026-05-08 01:27 35.20406 -85.21659 35566 ft 383 kts 297°
2026-05-08 01:27 35.22057 -85.24218 35821 ft 383 kts 297°
2026-05-08 01:27 35.23707 -85.26772 36094 ft 383 kts 297°
2026-05-08 01:27 35.25357 -85.29324 36384 ft 382 kts 297°
2026-05-08 01:28 35.27006 -85.31873 36671 ft 382 kts 298°
2026-05-08 01:28 35.28649 -85.34415 36953 ft 381 kts 298°
2026-05-08 01:28 35.30294 -85.36962 37230 ft 380 kts 298°
2026-05-08 01:28 35.31928 -85.39495 37496 ft 380 kts 298°
2026-05-08 01:29 35.33565 -85.42033 37758 ft 379 kts 298°
2026-05-08 01:29 35.35197 -85.44565 37932 ft 379 kts 298°
2026-05-08 01:29 35.36816 -85.47078 38181 ft 378 kts 298°
2026-05-08 01:29 35.38444 -85.49607 38439 ft 377 kts 298°
2026-05-08 01:30 35.40069 -85.52131 38685 ft 376 kts 298°
2026-05-08 01:30 35.41689 -85.54651 38868 ft 376 kts 298°
2026-05-08 01:30 35.43308 -85.57173 39105 ft 375 kts 298°
2026-05-08 01:30 35.44919 -85.59683 39299 ft 374 kts 298°
2026-05-08 01:31 35.46532 -85.62198 39411 ft 375 kts 298°
2026-05-08 01:31 35.48146 -85.64720 39559 ft 376 kts 298°
2026-05-08 01:31 35.49739 -85.67208 39700 ft 375 kts 298°
2026-05-08 01:31 35.51347 -85.69720 39826 ft 375 kts 298°
2026-05-08 01:32 35.52961 -85.72242 39918 ft 375 kts 298°
2026-05-08 01:32 35.56198 -85.77313 40041 ft 378 kts 298°
2026-05-08 01:33 35.59442 -85.82392 40057 ft 377 kts 298°
2026-05-08 01:33 35.62681 -85.87468 40054 ft 377 kts 298°
2026-05-08 01:34 35.65914 -85.92545 40053 ft 377 kts 298°
2026-05-08 01:34 35.69144 -85.97626 40113 ft 377 kts 298°
2026-05-08 01:35 35.72348 -86.02672 40060 ft 375 kts 298°
2026-05-08 01:35 35.75556 -86.07733 40055 ft 375 kts 298°
2026-05-08 01:36 35.78760 -86.12798 40065 ft 375 kts 298°
2026-05-08 01:36 35.81950 -86.17848 40059 ft 375 kts 298°
2026-05-08 01:37 35.85150 -86.22919 40071 ft 374 kts 298°
2026-05-08 01:37 35.88349 -86.27995 40045 ft 374 kts 298°
2026-05-08 01:38 35.91544 -86.33073 40047 ft 375 kts 298°
2026-05-08 01:38 35.94739 -86.38160 40046 ft 375 kts 298°
2026-05-08 01:39 35.97931 -86.43248 40074 ft 375 kts 298°
2026-05-08 01:39 36.01121 -86.48340 40070 ft 375 kts 298°
2026-05-08 01:40 36.04289 -86.53405 40074 ft 375 kts 298°
2026-05-08 01:40 36.07478 -86.58513 40077 ft 375 kts 297°
2026-05-08 01:41 36.10665 -86.63624 40067 ft 375 kts 297°
2026-05-08 01:41 36.13915 -86.68682 40059 ft 380 kts 301°
2026-05-08 01:42 36.17495 -86.73516 40068 ft 381 kts 302°
2026-05-08 01:42 36.21133 -86.78311 40078 ft 382 kts 302°
2026-05-08 01:43 36.24749 -86.83065 40047 ft 381 kts 302°
2026-05-08 01:43 36.28381 -86.87855 40047 ft 381 kts 302°
2026-05-08 01:44 36.32009 -86.92657 40051 ft 381 kts 302°
2026-05-08 01:44 36.35630 -86.97459 40051 ft 381 kts 302°
2026-05-08 01:45 36.39252 -87.02270 40054 ft 381 kts 302°
2026-05-08 01:45 36.42876 -87.07090 40049 ft 381 kts 302°
2026-05-08 01:46 36.46468 -87.11874 40069 ft 381 kts 302°
2026-05-08 01:46 36.50084 -87.16697 40068 ft 381 kts 302°
2026-05-08 01:47 36.53703 -87.21529 40056 ft 382 kts 302°
2026-05-08 01:47 36.57316 -87.26362 40066 ft 381 kts 302°
2026-05-08 01:48 36.62738 -87.33629 40060 ft 381 kts 302°
2026-05-08 01:48 36.66349 -87.38480 40064 ft 382 kts 302°
2026-05-08 01:49 36.69940 -87.43313 40047 ft 382 kts 302°
2026-05-08 01:49 36.73548 -87.48174 40057 ft 382 kts 302°
2026-05-08 01:50 36.77152 -87.53036 40046 ft 382 kts 302°
2026-05-08 01:50 36.80756 -87.57905 40070 ft 382 kts 302°
2026-05-08 01:51 36.84366 -87.62789 40068 ft 382 kts 302°
2026-05-08 01:51 36.87965 -87.67668 40064 ft 382 kts 302°
2026-05-08 01:52 36.91559 -87.72546 40064 ft 382 kts 302°
2026-05-08 01:52 36.95159 -87.77441 40058 ft 382 kts 302°
2026-05-08 01:53 36.98754 -87.82335 40062 ft 382 kts 302°
2026-05-08 01:53 37.02326 -87.87205 40047 ft 382 kts 302°
2026-05-08 01:54 37.05924 -87.92118 40050 ft 382 kts 302°
2026-05-08 01:54 37.09515 -87.97029 40048 ft 382 kts 302°
2026-05-08 01:55 37.13104 -88.01945 40051 ft 382 kts 302°
2026-05-08 01:55 37.16697 -88.06873 40051 ft 382 kts 302°
2026-05-08 01:56 37.19674 -88.10963 40050 ft 382 kts 302°
2026-05-08 01:56 37.23269 -88.15910 40077 ft 383 kts 302°
2026-05-08 01:57 37.26867 -88.20869 40047 ft 385 kts 302°
2026-05-08 01:57 37.30476 -88.25847 40044 ft 385 kts 302°
2026-05-08 01:58 37.34082 -88.30831 40042 ft 385 kts 302°
2026-05-08 01:58 37.37670 -88.35795 40057 ft 385 kts 302°
2026-05-08 01:59 37.41279 -88.40795 40049 ft 385 kts 302°
2026-05-08 01:59 37.44878 -88.45792 40057 ft 385 kts 302°
2026-05-08 02:00 37.48479 -88.50801 40060 ft 386 kts 302°
2026-05-08 02:00 37.52098 -88.55845 40056 ft 388 kts 302°
2026-05-08 02:01 37.55705 -88.60875 40057 ft 389 kts 302°
2026-05-08 02:01 37.59333 -88.65942 40054 ft 389 kts 302°
2026-05-08 02:02 37.62957 -88.71013 40054 ft 389 kts 302°
2026-05-08 02:02 37.66579 -88.76087 40054 ft 389 kts 302°
2026-05-08 02:03 37.70204 -88.81170 40058 ft 389 kts 302°
2026-05-08 02:03 37.73832 -88.86269 40070 ft 390 kts 302°
2026-05-08 02:04 37.77480 -88.91409 40064 ft 394 kts 302°
2026-05-08 02:04 37.81122 -88.96542 40063 ft 395 kts 302°
2026-05-08 02:05 37.84786 -89.01721 40063 ft 395 kts 302°
2026-05-08 02:05 37.88453 -89.06904 40042 ft 395 kts 302°
2026-05-08 02:06 37.92116 -89.12091 40040 ft 394 kts 302°
2026-05-08 02:06 37.95748 -89.17246 40068 ft 395 kts 302°
2026-05-08 02:07 37.99402 -89.22445 40030 ft 396 kts 302°
2026-05-08 02:07 38.03072 -89.27672 40026 ft 397 kts 302°
2026-05-08 02:08 38.06751 -89.32920 40024 ft 398 kts 302°
2026-05-08 02:08 38.10433 -89.38178 40023 ft 398 kts 302°
2026-05-08 02:09 38.14106 -89.43434 40021 ft 398 kts 302°
2026-05-08 02:09 38.17786 -89.48709 40020 ft 398 kts 302°
2026-05-08 02:10 38.21432 -89.53945 40019 ft 400 kts 303°
2026-05-08 02:10 38.25134 -89.59277 40018 ft 403 kts 303°
2026-05-08 02:11 38.28854 -89.64632 40015 ft 403 kts 303°
2026-05-08 02:11 38.32569 -89.69990 40015 ft 403 kts 303°
2026-05-08 02:12 38.36278 -89.75350 40010 ft 403 kts 303°
2026-05-08 02:12 38.39980 -89.80711 40008 ft 403 kts 303°
2026-05-08 02:13 38.43664 -89.86055 40007 ft 403 kts 303°
2026-05-08 02:13 38.47370 -89.91439 40007 ft 403 kts 302°
2026-05-08 02:14 38.51065 -89.96816 40008 ft 403 kts 302°
2026-05-08 02:14 38.54737 -90.02168 40005 ft 403 kts 302°
2026-05-08 02:15 38.58428 -90.07557 40008 ft 403 kts 302°
2026-05-08 02:15 38.62119 -90.12955 40008 ft 403 kts 302°
2026-05-08 02:16 38.65804 -90.18354 40048 ft 403 kts 302°
2026-05-08 02:16 38.69501 -90.23784 40007 ft 405 kts 303°
2026-05-08 02:17 38.73206 -90.29234 40008 ft 406 kts 303°
2026-05-08 02:17 38.76913 -90.34691 40008 ft 406 kts 303°
2026-05-08 02:18 38.80619 -90.40157 40005 ft 406 kts 302°
2026-05-08 02:18 38.84297 -90.45592 39988 ft 406 kts 302°
2026-05-08 02:19 38.87966 -90.51087 39989 ft 404 kts 301°
2026-05-08 02:19 38.91468 -90.56728 39994 ft 403 kts 300°
2026-05-08 02:20 38.94928 -90.62390 39995 ft 403 kts 300°
2026-05-08 02:20 38.98405 -90.68032 39992 ft 403 kts 301°
2026-05-08 02:21 39.01902 -90.73679 39972 ft 403 kts 301°
2026-05-08 02:21 39.05395 -90.79318 39976 ft 403 kts 301°
2026-05-08 02:22 39.08886 -90.84967 39978 ft 403 kts 301°
2026-05-08 02:22 39.12376 -90.90626 40004 ft 403 kts 301°
2026-05-08 02:23 39.15849 -90.96271 39975 ft 406 kts 301°
2026-05-08 02:23 39.19361 -91.01988 39974 ft 407 kts 301°
2026-05-08 02:24 39.22882 -91.07724 39971 ft 407 kts 301°
2026-05-08 02:24 39.26395 -91.13460 39971 ft 407 kts 301°
2026-05-08 02:25 39.29907 -91.19206 39968 ft 408 kts 301°
2026-05-08 02:25 39.33396 -91.24927 39968 ft 408 kts 301°
2026-05-08 02:26 39.36915 -91.30707 39971 ft 410 kts 301°
2026-05-08 02:26 39.40463 -91.36547 39966 ft 414 kts 301°
2026-05-08 02:27 39.44017 -91.42402 39964 ft 414 kts 301°
2026-05-08 02:27 39.47577 -91.48277 39964 ft 414 kts 301°
2026-05-08 02:28 39.51129 -91.54150 39960 ft 414 kts 301°
2026-05-08 02:28 39.54661 -91.60007 39964 ft 416 kts 301°
2026-05-08 02:29 39.58220 -91.65915 39971 ft 416 kts 302°
2026-05-08 02:29 39.61797 -91.71869 39960 ft 419 kts 302°
2026-05-08 02:30 39.65380 -91.77838 39961 ft 419 kts 302°
2026-05-08 02:30 39.68961 -91.83815 39954 ft 419 kts 302°
2026-05-08 02:31 39.72515 -91.89760 39950 ft 419 kts 301°
2026-05-08 02:31 39.76087 -91.95748 39945 ft 419 kts 302°
2026-05-08 02:32 39.79661 -92.01752 39964 ft 420 kts 302°
2026-05-08 02:32 39.83240 -92.07774 39945 ft 421 kts 302°
2026-05-08 02:33 39.86827 -92.13821 39940 ft 422 kts 302°
2026-05-08 02:33 39.90391 -92.19838 39942 ft 422 kts 302°
2026-05-08 02:34 39.93966 -92.25886 39944 ft 422 kts 302°
2026-05-08 02:34 39.97540 -92.31947 39938 ft 422 kts 302°
2026-05-08 02:35 40.01128 -92.38043 39966 ft 423 kts 302°
2026-05-08 02:35 40.04714 -92.44148 39931 ft 425 kts 302°
2026-05-08 02:36 40.08315 -92.50289 39936 ft 425 kts 302°
2026-05-08 02:36 40.11903 -92.56438 39921 ft 425 kts 301°
2026-05-08 02:37 40.14825 -92.63050 39936 ft 419 kts 292°
2026-05-08 02:37 40.17267 -92.69899 39932 ft 418 kts 291°
2026-05-08 02:38 40.19651 -92.76857 39925 ft 420 kts 291°
2026-05-08 02:38 40.22038 -92.83846 39934 ft 420 kts 291°
2026-05-08 02:39 40.24437 -92.90844 39919 ft 422 kts 291°
2026-05-08 02:39 40.26839 -92.97853 39911 ft 422 kts 291°
2026-05-08 02:40 40.29238 -93.04866 39910 ft 422 kts 291°
2026-05-08 02:40 40.31639 -93.11907 39911 ft 425 kts 291°
2026-05-08 02:41 40.34048 -93.18991 39897 ft 426 kts 291°
2026-05-08 02:41 40.36445 -93.26054 39905 ft 426 kts 291°
2026-05-08 02:42 40.38847 -93.33150 39907 ft 426 kts 291°
2026-05-08 02:42 40.40845 -93.39066 39905 ft 426 kts 291°
2026-05-08 02:43 40.43240 -93.46175 39904 ft 426 kts 291°
2026-05-08 02:43 40.45635 -93.53304 39893 ft 427 kts 291°
2026-05-08 02:44 40.48036 -93.60468 39894 ft 427 kts 291°
2026-05-08 02:44 40.50427 -93.67616 39896 ft 427 kts 291°
2026-05-08 02:45 40.52817 -93.74784 39894 ft 427 kts 291°
2026-05-08 02:45 40.55183 -93.81898 39877 ft 427 kts 291°
2026-05-08 02:46 40.57565 -93.89079 39877 ft 428 kts 291°
2026-05-08 02:46 40.59945 -93.96271 39879 ft 429 kts 291°
2026-05-08 02:47 40.62321 -94.03469 39882 ft 429 kts 291°
2026-05-08 02:47 40.64696 -94.10682 39882 ft 429 kts 291°
2026-05-08 02:48 40.67065 -94.17896 39887 ft 429 kts 291°
2026-05-08 02:48 40.69411 -94.25059 39888 ft 428 kts 291°
2026-05-08 02:49 40.71767 -94.32271 39893 ft 428 kts 291°
2026-05-08 02:49 40.74113 -94.39474 39893 ft 428 kts 291°
2026-05-08 02:50 40.76457 -94.46686 39897 ft 428 kts 291°
2026-05-08 02:50 40.78796 -94.53906 39909 ft 427 kts 291°
2026-05-08 02:51 40.81118 -94.61086 39909 ft 427 kts 291°
2026-05-08 02:51 40.83448 -94.68315 39905 ft 428 kts 291°
2026-05-08 02:52 40.85778 -94.75562 39902 ft 428 kts 291°
2026-05-08 02:52 40.88102 -94.82809 39900 ft 428 kts 291°
2026-05-08 02:53 40.90420 -94.90054 39897 ft 428 kts 291°
2026-05-08 02:53 40.92734 -94.97308 39897 ft 428 kts 290°
2026-05-08 02:54 40.95045 -95.04573 39896 ft 428 kts 290°
2026-05-08 02:54 40.97355 -95.11852 39898 ft 429 kts 290°
2026-05-08 02:55 41.00797 -95.22738 39898 ft 429 kts 290°
2026-05-08 02:56 41.03096 -95.30033 39898 ft 430 kts 290°
2026-05-08 02:56 41.05399 -95.37361 39895 ft 431 kts 290°
2026-05-08 02:57 41.07701 -95.44704 39896 ft 431 kts 290°
2026-05-08 02:57 41.09987 -95.52015 39896 ft 432 kts 290°
2026-05-08 02:58 41.12282 -95.59377 39897 ft 432 kts 290°
2026-05-08 02:58 41.14572 -95.66739 39896 ft 431 kts 290°
2026-05-08 02:59 41.17001 -95.74017 39889 ft 433 kts 296°
2026-05-08 02:59 41.20059 -95.80940 39895 ft 435 kts 298°
2026-05-08 03:00 41.23225 -95.87796 39887 ft 435 kts 299°
2026-05-08 03:00 41.26388 -95.94610 39888 ft 435 kts 299°
2026-05-08 03:01 41.29558 -96.01476 39890 ft 435 kts 298°
2026-05-08 03:01 41.32713 -96.08346 39906 ft 435 kts 298°
2026-05-08 03:02 41.35866 -96.15233 39916 ft 435 kts 298°
2026-05-08 03:02 41.39013 -96.22121 39915 ft 435 kts 298°
2026-05-08 03:03 41.42162 -96.29026 39909 ft 436 kts 298°
2026-05-08 03:03 41.45290 -96.35904 39924 ft 436 kts 298°
2026-05-08 03:04 41.48427 -96.42813 39931 ft 436 kts 298°
2026-05-08 03:04 41.51563 -96.49738 39896 ft 436 kts 298°
2026-05-08 03:05 41.54695 -96.56672 39901 ft 436 kts 298°
2026-05-08 03:05 41.57820 -96.63603 39898 ft 436 kts 298°
2026-05-08 03:06 41.60947 -96.70556 39904 ft 437 kts 298°
2026-05-08 03:06 41.64081 -96.77541 39907 ft 438 kts 298°
2026-05-08 03:07 41.67196 -96.84500 39892 ft 438 kts 298°
2026-05-08 03:07 41.70324 -96.91504 39903 ft 439 kts 298°
2026-05-08 03:08 41.73455 -96.98530 39900 ft 439 kts 298°
2026-05-08 03:08 41.76557 -97.05510 39910 ft 439 kts 298°
2026-05-08 03:09 41.79681 -97.12553 39913 ft 440 kts 298°
2026-05-08 03:09 41.82810 -97.19626 39909 ft 441 kts 298°
2026-05-08 03:10 41.85936 -97.26707 39906 ft 441 kts 298°
2026-05-08 03:10 41.89057 -97.33795 39902 ft 441 kts 298°
2026-05-08 03:11 41.92173 -97.40887 39904 ft 441 kts 298°
2026-05-08 03:11 41.95283 -97.47985 39908 ft 441 kts 298°
2026-05-08 03:12 41.98377 -97.55061 39903 ft 442 kts 298°
2026-05-08 03:12 42.01494 -97.62207 39911 ft 443 kts 298°
2026-05-08 03:13 42.04610 -97.69368 39903 ft 443 kts 298°
2026-05-08 03:13 42.07699 -97.76484 39906 ft 443 kts 298°
2026-05-08 03:14 42.10798 -97.83641 39920 ft 443 kts 298°
2026-05-08 03:14 42.13896 -97.90812 39927 ft 443 kts 298°
2026-05-08 03:15 42.16989 -97.97991 39906 ft 443 kts 298°
2026-05-08 03:15 42.20082 -98.05184 39922 ft 442 kts 298°
2026-05-08 03:16 42.23167 -98.12377 39922 ft 442 kts 298°
2026-05-08 03:16 42.26244 -98.19568 39921 ft 442 kts 298°
2026-05-08 03:17 42.29315 -98.26764 39923 ft 442 kts 298°
2026-05-08 03:17 42.32366 -98.33932 39927 ft 442 kts 298°
2026-05-08 03:18 42.35433 -98.41154 39917 ft 442 kts 298°
2026-05-08 03:18 42.38484 -98.48354 39916 ft 441 kts 298°
2026-05-08 03:19 42.41534 -98.55573 39916 ft 441 kts 298°
2026-05-08 03:19 42.44577 -98.62790 39915 ft 441 kts 298°
2026-05-08 03:20 42.47613 -98.70013 39916 ft 441 kts 298°
2026-05-08 03:20 42.50450 -98.77389 39914 ft 441 kts 296°
2026-05-08 03:21 42.53163 -98.84840 39913 ft 441 kts 296°
2026-05-08 03:21 42.55895 -98.92286 39904 ft 441 kts 296°
2026-05-08 03:22 42.58651 -98.99715 39909 ft 441 kts 296°
2026-05-08 03:22 42.61399 -99.07109 39908 ft 441 kts 296°
2026-05-08 03:23 42.64156 -99.14548 39912 ft 441 kts 296°
2026-05-08 03:23 42.66911 -99.22004 39905 ft 441 kts 296°
2026-05-08 03:24 42.69647 -99.29430 39904 ft 442 kts 296°
2026-05-08 03:24 42.72400 -99.36925 39922 ft 442 kts 296°
2026-05-08 03:25 42.75141 -99.44404 39908 ft 442 kts 296°
2026-05-08 03:25 42.77883 -99.51905 39912 ft 443 kts 296°
2026-05-08 03:26 42.80619 -99.59413 39906 ft 443 kts 296°
2026-05-08 03:26 42.83355 -99.66938 39907 ft 443 kts 296°
2026-05-08 03:27 42.86074 -99.74441 39912 ft 443 kts 296°
2026-05-08 03:27 42.88801 -99.81982 39926 ft 444 kts 296°
2026-05-08 03:28 42.91524 -99.89533 39899 ft 443 kts 296°
2026-05-08 03:28 42.94240 -99.97086 39919 ft 443 kts 296°
2026-05-08 03:29 42.96497 -100.03378 39908 ft 443 kts 296°
2026-05-08 03:29 42.99203 -100.10941 39910 ft 443 kts 296°
2026-05-08 03:30 43.03258 -100.22312 39902 ft 443 kts 296°
2026-05-08 03:31 43.08637 -100.37468 39921 ft 443 kts 296°
2026-05-08 03:32 43.12642 -100.48807 39921 ft 443 kts 296°
2026-05-08 03:32 43.15317 -100.56406 39910 ft 443 kts 296°
2026-05-08 03:33 43.17985 -100.64006 39897 ft 442 kts 296°
2026-05-08 03:33 43.20645 -100.71605 39893 ft 442 kts 296°
2026-05-08 03:34 43.23301 -100.79214 39893 ft 442 kts 296°
2026-05-08 03:34 43.25953 -100.86832 39892 ft 442 kts 296°
2026-05-08 03:35 43.28602 -100.94461 39894 ft 442 kts 295°
2026-05-08 03:35 43.31246 -101.02099 39901 ft 442 kts 295°
2026-05-08 03:36 43.33872 -101.09707 39902 ft 443 kts 295°
2026-05-08 03:36 43.36505 -101.17353 39902 ft 443 kts 295°
2026-05-08 03:37 43.39274 -101.25418 39904 ft 443 kts 295°
2026-05-08 03:37 43.41899 -101.33088 39905 ft 443 kts 295°
2026-05-08 03:38 43.44520 -101.40768 39909 ft 443 kts 295°
2026-05-08 03:38 43.47129 -101.48434 39912 ft 443 kts 295°
2026-05-08 03:39 43.49737 -101.56117 39911 ft 443 kts 295°
2026-05-08 03:39 43.52327 -101.63770 39912 ft 443 kts 295°
2026-05-08 03:40 43.54927 -101.71472 39907 ft 443 kts 295°
2026-05-08 03:40 43.57522 -101.79183 39914 ft 443 kts 295°
2026-05-08 03:41 43.60112 -101.86903 39912 ft 443 kts 295°
2026-05-08 03:41 43.62698 -101.94633 39912 ft 444 kts 295°
2026-05-08 03:42 43.65284 -102.02382 39912 ft 444 kts 295°
2026-05-08 03:42 43.67859 -102.10123 39908 ft 443 kts 295°
2026-05-08 03:43 43.70425 -102.17861 39906 ft 443 kts 295°
2026-05-08 03:43 43.72974 -102.25565 39905 ft 443 kts 295°
2026-05-08 03:44 43.75527 -102.33306 39930 ft 443 kts 295°
2026-05-08 03:44 43.78076 -102.41058 39886 ft 442 kts 295°
2026-05-08 03:45 43.80618 -102.48810 39912 ft 442 kts 295°
2026-05-08 03:45 43.83154 -102.56566 39911 ft 442 kts 295°
2026-05-08 03:46 43.85680 -102.64315 39914 ft 442 kts 295°
2026-05-08 03:46 43.88206 -102.72089 39918 ft 442 kts 295°
2026-05-08 03:47 43.90725 -102.79862 39924 ft 442 kts 295°
2026-05-08 03:47 43.93249 -102.87671 39929 ft 443 kts 295°
2026-05-08 03:48 43.95749 -102.95431 39932 ft 444 kts 295°
2026-05-08 03:48 43.98273 -103.03265 39934 ft 444 kts 295°
2026-05-08 03:49 44.01007 -103.10955 39934 ft 444 kts 297°
2026-05-08 03:49 44.03836 -103.18596 39907 ft 444 kts 297°
2026-05-08 03:50 44.06629 -103.26253 39914 ft 443 kts 297°
2026-05-08 03:50 44.09370 -103.33882 39893 ft 444 kts 297°
2026-05-08 03:51 44.12118 -103.41578 39911 ft 444 kts 297°
2026-05-08 03:51 44.14861 -103.49284 39918 ft 443 kts 297°
2026-05-08 03:52 44.17595 -103.56981 39923 ft 442 kts 297°
2026-05-08 03:52 44.20315 -103.64659 39913 ft 442 kts 296°
2026-05-08 03:53 44.23031 -103.72348 39920 ft 442 kts 296°
2026-05-08 03:53 44.25742 -103.80043 39935 ft 442 kts 296°
2026-05-08 03:54 44.28436 -103.87710 39945 ft 442 kts 296°
2026-05-08 03:54 44.31145 -103.95445 39950 ft 442 kts 296°
2026-05-08 03:55 44.33846 -104.03177 39958 ft 443 kts 296°
2026-05-08 03:55 44.36532 -104.10889 39931 ft 445 kts 296°
2026-05-08 03:56 44.39243 -104.18693 39932 ft 445 kts 296°
2026-05-08 03:56 44.41946 -104.26499 39924 ft 445 kts 296°
2026-05-08 03:57 44.44625 -104.34256 39935 ft 445 kts 296°
2026-05-08 03:57 44.47313 -104.42065 39938 ft 446 kts 296°
2026-05-08 03:58 44.50002 -104.49898 39936 ft 445 kts 296°
2026-05-08 03:58 44.52683 -104.57730 39940 ft 445 kts 296°
2026-05-08 03:59 44.55358 -104.65566 39935 ft 445 kts 296°
2026-05-08 03:59 44.57579 -104.72091 39940 ft 446 kts 296°
2026-05-08 04:00 44.60243 -104.79940 39930 ft 446 kts 296°
2026-05-08 04:00 44.62905 -104.87803 39935 ft 445 kts 296°
2026-05-08 04:01 44.65563 -104.95678 39935 ft 445 kts 296°
2026-05-08 04:01 44.68213 -105.03552 39930 ft 446 kts 296°
2026-05-08 04:02 44.70860 -105.11439 39931 ft 446 kts 296°
2026-05-08 04:02 44.73497 -105.19325 39932 ft 446 kts 296°
2026-05-08 04:03 44.76115 -105.27172 39934 ft 446 kts 296°
2026-05-08 04:03 44.80056 -105.39034 39927 ft 446 kts 296°
2026-05-08 04:04 44.82675 -105.46945 39936 ft 445 kts 296°
2026-05-08 04:04 44.85289 -105.54866 39942 ft 445 kts 296°
2026-05-08 04:05 44.87879 -105.62736 39935 ft 445 kts 296°
2026-05-08 04:05 44.90483 -105.70671 39936 ft 445 kts 296°
2026-05-08 04:06 44.93079 -105.78608 39940 ft 446 kts 296°
2026-05-08 04:06 44.95676 -105.86572 39947 ft 446 kts 296°
2026-05-08 04:07 44.98261 -105.94524 39940 ft 445 kts 296°
2026-05-08 04:07 45.00839 -106.02475 39942 ft 445 kts 296°
2026-05-08 04:08 45.03400 -106.10403 39957 ft 445 kts 296°
2026-05-08 04:08 45.05967 -106.18369 39955 ft 445 kts 296°
2026-05-08 04:09 45.08530 -106.26349 39938 ft 445 kts 296°
2026-05-08 04:09 45.11091 -106.34347 39936 ft 445 kts 296°
2026-05-08 04:10 45.13641 -106.42336 39942 ft 444 kts 296°
2026-05-08 04:10 45.16163 -106.50261 39937 ft 444 kts 296°
2026-05-08 04:11 45.18695 -106.58243 39952 ft 445 kts 296°
2026-05-08 04:11 45.21229 -106.66253 39951 ft 445 kts 296°
2026-05-08 04:12 45.23759 -106.74277 39962 ft 445 kts 296°
2026-05-08 04:12 45.26283 -106.82309 39933 ft 445 kts 296°
2026-05-08 04:13 45.28794 -106.90326 39962 ft 443 kts 296°
2026-05-08 04:13 45.31290 -106.98314 39969 ft 443 kts 296°
2026-05-08 04:14 45.33783 -107.06322 39967 ft 443 kts 296°
2026-05-08 04:14 45.36273 -107.14341 39970 ft 443 kts 296°
2026-05-08 04:15 45.38754 -107.22359 39973 ft 443 kts 296°
2026-05-08 04:15 45.41233 -107.30395 39972 ft 443 kts 296°
2026-05-08 04:16 45.43702 -107.38424 39966 ft 442 kts 296°
2026-05-08 04:16 45.46160 -107.46441 39968 ft 441 kts 296°
2026-05-08 04:17 45.48596 -107.54412 39968 ft 441 kts 296°
2026-05-08 04:17 45.51040 -107.62436 39967 ft 441 kts 296°
2026-05-08 04:18 45.53480 -107.70474 39972 ft 441 kts 296°
2026-05-08 04:18 45.55914 -107.78514 39974 ft 441 kts 296°
2026-05-08 04:19 45.58339 -107.86554 39970 ft 440 kts 296°
2026-05-08 04:19 45.60753 -107.94583 39973 ft 438 kts 296°
2026-05-08 04:20 45.63155 -108.02591 39977 ft 438 kts 296°
2026-05-08 04:20 45.65531 -108.10538 39976 ft 438 kts 296°
2026-05-08 04:21 45.67920 -108.18559 39980 ft 438 kts 296°
2026-05-08 04:21 45.70305 -108.26591 39985 ft 438 kts 296°
2026-05-08 04:22 45.72684 -108.34629 39989 ft 438 kts 296°
2026-05-08 04:22 45.75036 -108.42602 40027 ft 436 kts 296°
2026-05-08 04:23 45.77389 -108.50602 40026 ft 435 kts 296°
2026-05-08 04:23 45.79733 -108.58599 40029 ft 435 kts 296°
2026-05-08 04:24 45.82041 -108.66636 40028 ft 436 kts 295°
2026-05-08 04:24 45.84117 -108.74764 40022 ft 437 kts 294°
2026-05-08 04:25 45.86165 -108.83002 39997 ft 439 kts 294°
2026-05-08 04:25 45.88235 -108.91222 39993 ft 436 kts 294°
2026-05-08 04:26 45.90305 -108.99380 40001 ft 434 kts 294°
2026-05-08 04:26 45.92375 -109.07537 40001 ft 434 kts 294°
2026-05-08 04:27 45.94438 -109.15696 40004 ft 434 kts 294°
2026-05-08 04:27 45.96494 -109.23863 40008 ft 434 kts 294°
2026-05-08 04:28 45.98541 -109.32030 40004 ft 433 kts 294°
2026-05-08 04:28 46.00570 -109.40158 40009 ft 430 kts 294°
2026-05-08 04:29 46.02571 -109.48205 40009 ft 426 kts 294°
2026-05-08 04:29 46.04550 -109.56176 40012 ft 425 kts 294°
2026-05-08 04:30 46.06538 -109.64210 40012 ft 425 kts 294°
2026-05-08 04:30 46.08519 -109.72250 40012 ft 425 kts 294°
2026-05-08 04:31 46.10488 -109.80276 40012 ft 425 kts 294°
2026-05-08 04:31 46.12457 -109.88321 40013 ft 425 kts 294°
2026-05-08 04:32 46.14419 -109.96376 40013 ft 426 kts 294°
2026-05-08 04:32 46.16375 -110.04433 40012 ft 426 kts 294°
2026-05-08 04:33 46.18327 -110.12500 40014 ft 426 kts 294°
2026-05-08 04:33 46.20261 -110.20525 40009 ft 425 kts 294°
2026-05-08 04:34 46.22199 -110.28595 40015 ft 425 kts 294°
2026-05-08 04:34 46.24130 -110.36664 39992 ft 425 kts 294°
2026-05-08 04:35 46.26046 -110.44707 40017 ft 421 kts 294°
2026-05-08 04:35 46.27941 -110.52698 40018 ft 420 kts 294°
2026-05-08 04:36 46.29834 -110.60687 40017 ft 419 kts 294°
2026-05-08 04:36 46.31721 -110.68675 40018 ft 420 kts 294°
2026-05-08 04:37 46.33602 -110.76677 40015 ft 420 kts 294°
2026-05-08 04:37 46.35476 -110.84677 40013 ft 420 kts 294°
2026-05-08 04:38 46.37331 -110.92630 40002 ft 419 kts 294°
2026-05-08 04:38 46.39183 -111.00607 39999 ft 417 kts 294°
2026-05-08 04:39 46.41026 -111.08558 40010 ft 416 kts 294°
2026-05-08 04:39 46.42866 -111.16515 40013 ft 416 kts 294°
2026-05-08 04:40 46.44692 -111.24475 40007 ft 416 kts 294°
2026-05-08 04:40 46.46522 -111.32466 40006 ft 417 kts 294°
2026-05-08 04:41 46.48345 -111.40453 40009 ft 417 kts 294°
2026-05-08 04:41 46.50153 -111.48405 40003 ft 418 kts 294°
2026-05-08 04:42 46.51969 -111.56418 40009 ft 418 kts 294°
2026-05-08 04:42 46.53780 -111.64443 40014 ft 418 kts 294°
2026-05-08 04:43 46.55280 -111.71113 40015 ft 418 kts 294°
2026-05-08 04:43 46.57082 -111.79156 40016 ft 419 kts 294°
2026-05-08 04:44 46.58880 -111.87211 40018 ft 419 kts 294°
2026-05-08 04:44 46.60673 -111.95271 39984 ft 419 kts 294°
2026-05-08 04:45 46.62614 -112.03245 40017 ft 417 kts 296°
2026-05-08 04:45 46.64621 -112.11185 40017 ft 418 kts 295°
2026-05-08 04:46 46.66589 -112.19077 40015 ft 418 kts 295°
2026-05-08 04:46 46.68562 -112.27048 40013 ft 418 kts 295°
2026-05-08 04:47 46.70527 -112.35028 40001 ft 418 kts 295°
2026-05-08 04:47 46.72489 -112.43022 39992 ft 418 kts 295°
2026-05-08 04:48 46.74441 -112.51003 39964 ft 418 kts 295°
2026-05-08 04:48 46.76389 -112.58998 39987 ft 418 kts 295°
2026-05-08 04:49 46.78317 -112.66945 39981 ft 418 kts 295°
2026-05-08 04:49 46.80251 -112.74942 39975 ft 418 kts 294°
2026-05-08 04:50 46.82181 -112.82946 39976 ft 418 kts 294°
2026-05-08 04:50 46.84105 -112.90961 39969 ft 418 kts 294°
2026-05-08 04:51 46.86024 -112.98981 39968 ft 418 kts 294°
2026-05-08 04:51 46.87927 -113.06962 39953 ft 418 kts 294°
2026-05-08 04:52 46.89839 -113.15012 39970 ft 418 kts 294°
2026-05-08 04:52 46.91745 -113.23064 39965 ft 418 kts 294°
2026-05-08 04:53 46.93642 -113.31111 39970 ft 418 kts 294°
2026-05-08 04:53 46.95524 -113.39122 39964 ft 418 kts 294°
2026-05-08 04:54 46.97409 -113.47174 39962 ft 418 kts 294°
2026-05-08 04:54 46.99288 -113.55233 39963 ft 418 kts 294°
2026-05-08 04:55 47.01164 -113.63305 39959 ft 418 kts 293°
2026-05-08 04:55 47.03036 -113.71391 39980 ft 419 kts 293°
2026-05-08 04:56 47.04904 -113.79496 39986 ft 419 kts 293°
2026-05-08 04:56 47.06754 -113.87548 39990 ft 419 kts 293°
2026-05-08 04:57 47.08608 -113.95639 39994 ft 419 kts 293°
2026-05-08 04:57 47.10457 -114.03754 39994 ft 419 kts 293°
2026-05-08 04:58 47.12300 -114.11871 39964 ft 419 kts 292°
2026-05-08 04:58 47.14140 -114.19997 39955 ft 419 kts 292°
2026-05-08 04:59 47.15980 -114.28161 39957 ft 422 kts 292°
2026-05-08 04:59 47.17809 -114.36313 39966 ft 422 kts 292°
2026-05-08 05:00 47.19646 -114.44528 39966 ft 423 kts 292°
2026-05-08 05:00 47.21479 -114.52754 39968 ft 423 kts 292°
2026-05-08 05:01 47.23307 -114.60984 39963 ft 423 kts 292°
2026-05-08 05:01 47.25116 -114.69169 39967 ft 423 kts 292°
2026-05-08 05:02 47.26931 -114.77413 39960 ft 423 kts 291°
2026-05-08 05:02 47.28743 -114.85672 39971 ft 424 kts 291°
2026-05-08 05:03 47.30549 -114.93936 39963 ft 424 kts 291°
2026-05-08 05:03 47.32353 -115.02230 39976 ft 424 kts 291°
2026-05-08 05:04 47.34150 -115.10510 39969 ft 425 kts 291°
2026-05-08 05:04 47.35934 -115.18761 39978 ft 425 kts 291°
2026-05-08 05:05 47.37718 -115.27068 39972 ft 424 kts 291°
2026-05-08 05:05 47.39494 -115.35368 39973 ft 425 kts 291°
2026-05-08 05:06 47.41268 -115.43688 39968 ft 424 kts 291°
2026-05-08 05:06 47.43034 -115.52005 39965 ft 425 kts 291°
2026-05-08 05:07 47.44796 -115.60334 39965 ft 424 kts 291°
2026-05-08 05:07 47.45974 -115.68928 39971 ft 431 kts 280°
2026-05-08 05:08 47.46531 -115.77761 39966 ft 431 kts 279°
2026-05-08 05:08 47.47064 -115.86548 39961 ft 432 kts 279°
2026-05-08 05:09 47.47600 -115.95377 39974 ft 431 kts 279°
2026-05-08 05:09 47.48134 -116.04218 39984 ft 431 kts 279°
2026-05-08 05:10 47.48919 -116.17495 39997 ft 432 kts 279°
2026-05-08 05:11 47.49432 -116.26349 40005 ft 432 kts 279°
2026-05-08 05:11 47.49941 -116.35197 39994 ft 432 kts 279°
2026-05-08 05:12 47.50442 -116.44056 40008 ft 432 kts 279°
2026-05-08 05:12 47.50936 -116.52882 40021 ft 432 kts 278°
2026-05-08 05:13 47.51424 -116.61738 40020 ft 432 kts 278°
2026-05-08 05:13 47.51906 -116.70617 40030 ft 432 kts 278°
2026-05-08 05:14 47.52378 -116.79438 40029 ft 432 kts 278°
2026-05-08 05:14 47.52846 -116.88309 40031 ft 433 kts 278°
2026-05-08 05:15 47.53308 -116.97191 40027 ft 433 kts 278°
2026-05-08 05:15 47.53764 -117.06098 40020 ft 433 kts 278°
2026-05-08 05:16 47.54213 -117.14999 40017 ft 433 kts 278°
2026-05-08 05:16 47.54655 -117.23912 40004 ft 433 kts 278°
2026-05-08 05:17 47.55089 -117.32817 40006 ft 433 kts 277°
2026-05-08 05:17 47.55516 -117.41680 40018 ft 434 kts 277°
2026-05-08 05:18 47.55938 -117.50610 40013 ft 435 kts 277°
2026-05-08 05:18 47.56354 -117.59548 40014 ft 435 kts 277°
2026-05-08 05:19 47.56937 -117.68465 40006 ft 433 kts 282°
2026-05-08 05:19 47.57856 -117.77232 40004 ft 433 kts 281°
2026-05-08 05:20 47.58731 -117.86059 40001 ft 433 kts 281°
2026-05-08 05:20 47.59580 -117.94913 40002 ft 434 kts 281°
2026-05-08 05:21 47.60415 -118.03788 39988 ft 434 kts 281°
2026-05-08 05:21 47.61242 -118.12660 39969 ft 434 kts 281°
2026-05-08 05:22 47.62056 -118.21485 39977 ft 434 kts 280°
2026-05-08 05:22 47.62868 -118.30358 39967 ft 434 kts 280°
2026-05-08 05:23 47.63673 -118.39243 39969 ft 435 kts 280°
2026-05-08 05:23 47.64474 -118.48147 39972 ft 436 kts 280°
2026-05-08 05:24 47.65263 -118.57014 39971 ft 436 kts 280°
2026-05-08 05:24 47.66049 -118.65924 39966 ft 435 kts 280°
2026-05-08 05:25 47.66829 -118.74838 39964 ft 435 kts 280°
2026-05-08 05:25 47.67601 -118.83748 39966 ft 435 kts 280°
2026-05-08 05:26 47.68366 -118.92651 39948 ft 435 kts 279°
2026-05-08 05:26 47.69124 -119.01571 39955 ft 436 kts 279°
2026-05-08 05:27 47.69876 -119.10498 39951 ft 436 kts 279°
2026-05-08 05:27 47.70622 -119.19430 39947 ft 436 kts 279°
2026-05-08 05:28 47.71354 -119.28296 39962 ft 436 kts 279°
2026-05-08 05:28 47.72085 -119.37228 39945 ft 435 kts 279°
2026-05-08 05:29 47.72810 -119.46166 39929 ft 435 kts 279°
2026-05-08 05:29 47.73412 -119.53609 39931 ft 436 kts 279°
2026-05-08 05:30 47.74236 -119.64005 39932 ft 436 kts 279°
2026-05-08 05:30 47.74821 -119.71452 39925 ft 436 kts 279°
2026-05-08 05:31 47.75519 -119.80398 39918 ft 436 kts 278°
2026-05-08 05:31 47.75865 -119.84880 39743 ft 435 kts 278°
2026-05-08 05:31 47.76209 -119.89348 39491 ft 435 kts 278°
2026-05-08 05:31 47.76551 -119.93817 39263 ft 435 kts 278°
2026-05-08 05:32 47.76889 -119.98253 38991 ft 428 kts 278°
2026-05-08 05:32 47.77221 -120.02646 38368 ft 428 kts 278°
2026-05-08 05:32 47.77552 -120.07033 37657 ft 427 kts 278°
2026-05-08 05:32 47.77882 -120.11416 36990 ft 425 kts 278°
2026-05-08 05:33 47.78207 -120.15780 36347 ft 424 kts 278°
2026-05-08 05:33 47.78530 -120.20141 35664 ft 424 kts 278°
2026-05-08 05:33 47.78853 -120.24509 34951 ft 425 kts 278°
2026-05-08 05:33 47.79176 -120.28900 34155 ft 428 kts 278°
2026-05-08 05:34 47.79499 -120.33324 33256 ft 432 kts 277°
2026-05-08 05:34 47.79823 -120.37775 32378 ft 435 kts 277°
2026-05-08 05:34 47.80147 -120.42259 31540 ft 438 kts 277°
2026-05-08 05:34 47.80468 -120.46722 30628 ft 442 kts 277°
2026-05-08 05:35 47.80795 -120.51289 29622 ft 447 kts 277°
2026-05-08 05:35 47.81122 -120.55897 28735 ft 447 kts 277°
2026-05-08 05:35 47.81447 -120.60500 28095 ft 443 kts 277°
2026-05-08 05:35 47.81765 -120.65042 27414 ft 440 kts 276°
2026-05-08 05:36 47.82077 -120.69505 26725 ft 437 kts 276°
2026-05-08 05:36 47.82389 -120.73998 26035 ft 434 kts 276°
2026-05-08 05:36 47.82697 -120.78461 25304 ft 433 kts 276°
2026-05-08 05:36 47.83008 -120.82934 24128 ft 433 kts 276°
2026-05-08 05:37 47.83312 -120.87375 22426 ft 433 kts 275°
2026-05-08 05:37 47.83613 -120.91852 21255 ft 432 kts 275°
2026-05-08 05:37 47.83910 -120.96273 20704 ft 424 kts 275°
2026-05-08 05:37 47.84201 -121.00603 20056 ft 419 kts 275°
2026-05-08 05:38 47.84476 -121.04742 19437 ft 416 kts 275°
2026-05-08 05:38 47.84736 -121.08666 18806 ft 413 kts 275°
2026-05-08 05:38 47.85012 -121.12853 18093 ft 411 kts 274°
2026-05-08 05:38 47.85289 -121.17078 17344 ft 408 kts 274°
2026-05-08 05:39 47.85565 -121.21270 16646 ft 404 kts 275°
2026-05-08 05:39 47.85836 -121.25418 15972 ft 400 kts 274°
2026-05-08 05:39 47.86099 -121.29526 15260 ft 398 kts 274°
2026-05-08 05:39 47.86360 -121.33636 14487 ft 397 kts 274°
2026-05-08 05:40 47.86619 -121.37723 13740 ft 395 kts 275°
2026-05-08 05:40 47.86877 -121.41787 12967 ft 392 kts 275°
2026-05-08 05:40 47.87130 -121.45801 12264 ft 387 kts 274°
2026-05-08 05:40 47.87379 -121.49772 11566 ft 383 kts 274°
2026-05-08 05:41 47.87618 -121.53699 11074 ft 373 kts 274°
2026-05-08 05:41 47.87852 -121.57448 10947 ft 354 kts 275°
2026-05-08 05:41 47.88076 -121.61005 10820 ft 336 kts 274°
2026-05-08 05:41 47.88286 -121.64392 10692 ft 320 kts 274°
2026-05-08 05:42 47.88460 -121.67621 10573 ft 305 kts 271°
2026-05-08 05:42 47.88230 -121.70619 10450 ft 290 kts 252°
2026-05-08 05:42 47.87372 -121.73253 10324 ft 276 kts 237°
2026-05-08 05:42 47.86327 -121.75593 10149 ft 268 kts 235°
2026-05-08 05:43 47.85277 -121.77879 9830 ft 271 kts 235°
2026-05-08 05:43 47.84188 -121.80254 9628 ft 283 kts 236°
2026-05-08 05:43 47.83084 -121.82674 9406 ft 281 kts 236°
2026-05-08 05:43 47.81984 -121.85089 8866 ft 280 kts 236°
2026-05-08 05:44 47.80896 -121.87481 8426 ft 279 kts 236°
2026-05-08 05:44 47.79806 -121.89876 8066 ft 279 kts 236°
2026-05-08 05:44 47.78729 -121.92243 7722 ft 279 kts 236°
2026-05-08 05:44 47.77647 -121.94618 7355 ft 275 kts 236°
2026-05-08 05:45 47.76579 -121.96962 7006 ft 272 kts 236°
2026-05-08 05:45 47.75521 -121.99282 6664 ft 271 kts 236°
2026-05-08 05:45 47.74467 -122.01593 6313 ft 269 kts 236°
2026-05-08 05:45 47.73413 -122.03899 5962 ft 268 kts 236°
2026-05-08 05:46 47.72171 -122.05924 5643 ft 267 kts 214°
2026-05-08 05:46 47.70599 -122.07384 5304 ft 266 kts 211°
2026-05-08 05:46 47.69005 -122.08774 4999 ft 265 kts 211°
2026-05-08 05:46 47.67476 -122.10289 4707 ft 264 kts 223°
2026-05-08 05:47 47.66428 -122.12502 4434 ft 262 kts 245°
2026-05-08 05:47 47.65715 -122.14985 4155 ft 262 kts 247°
2026-05-08 05:47 47.65024 -122.17444 4004 ft 258 kts 247°
2026-05-08 05:47 47.64355 -122.19811 3983 ft 242 kts 247°
2026-05-08 05:48 47.63708 -122.22101 3990 ft 239 kts 247°
2026-05-08 05:48 47.63067 -122.24372 3992 ft 239 kts 247°
2026-05-08 05:48 47.62424 -122.26652 3989 ft 239 kts 247°
2026-05-08 05:48 47.61778 -122.28911 3987 ft 238 kts 245°
2026-05-08 05:49 47.60719 -122.30754 3959 ft 237 kts 211°
2026-05-08 05:49 47.59209 -122.31650 3623 ft 235 kts 196°
2026-05-08 05:49 47.57573 -122.31824 3154 ft 240 kts 175°
2026-05-08 05:49 47.55892 -122.31608 2618 ft 242 kts 178°
2026-05-08 05:50 47.54244 -122.31606 2149 ft 230 kts 182°
2026-05-08 05:50 47.52689 -122.31698 1738 ft 218 kts 182°
2026-05-08 05:50 47.51250 -122.31744 1442 ft 197 kts 180°
2026-05-08 05:50 47.49954 -122.31753 1179 ft 175 kts 180°
2026-05-08 05:51 47.48816 -122.31765 956 ft 159 kts 180°
2026-05-08 05:51 47.47751 -122.31775 738 ft 148 kts 179°
2026-05-08 05:51 47.46739 -122.31784 510 ft 143 kts 179°
2026-05-08 05:51 47.45770 -122.31796 409 ft 137 kts 179°
2026-05-08 05:52 47.44948 -122.31795 397 ft 85 kts 180°
2026-05-08 05:52 47.44595 -122.31798 396 ft 19 kts 180°
2026-05-08 05:52 47.44455 -122.31798 397 ft 21 kts 178°
2026-05-08 05:52 47.44307 -122.31737 397 ft 24 kts 156°
2026-05-08 05:53 47.44152 -122.31621 397 ft 24 kts 149°
2026-05-08 05:53 47.44052 -122.31533 397 ft 18 kts 149°
2026-05-08 05:53 47.43966 -122.31458 399 ft 14 kts 149°
2026-05-08 05:53 47.43872 -122.31378 399 ft 17 kts 150°
2026-05-08 05:54 47.43808 -122.31227 395 ft 19 kts 91°
2026-05-08 05:54 47.43810 -122.31027 400 ft 21 kts 92°
2026-05-08 05:54 47.43808 -122.30821 398 ft 16 kts 90°
2026-05-08 05:54 47.43807 -122.30687 400 ft 13 kts 90°
2026-05-08 05:55 47.43781 -122.30602 396 ft 10 kts 139°
2026-05-08 05:55 47.43720 -122.30520 397 ft 12 kts 127°
2026-05-08 05:55 47.43710 -122.30424 396 ft 4 kts 65°
2026-05-08 05:55 47.43749 -122.30376 395 ft 7 kts 33°
2026-05-08 05:56 47.43791 -122.30344 395 ft 6 kts 24°
2026-05-08 05:56 47.43796 -122.30340 396 ft 0 kts 24°